Volver al catálogo

STARLINK-32842

ActivoComunicacionesVLEO
NORAD 62822·PAYLOAD·🇺🇸 United States

Lanzado Jan 24, 2025 desde Vandenberg Space Force Base

Loading…

Próximos Pases (próximas 24 horas)

TLE

ActualizadoSource: CelesTrak SupGP

Época: Sep 15, 2026, 02:47 UTC

1 62822C 25018S   26258.11645833 -.00062287  00000+0 -18417-2 0  2587
2 62822  53.1568 146.5505 0001336  86.8134 334.3965 15.34397361    15

Sigue STARLINK-32842 en tiempo real con AllMySat

Download on the App Store